This is the latest recevied weather packets stored in our database for station/object N7ZAP. If no packets are shown the sender has not sent any weather packets the latest 10 day(s).
| Time | Temp. | Humidity | Pressure | Rain* | Wind** | Luminosity | Snow |
|---|---|---|---|---|---|---|---|
| 1787897624 | 26.67° C | 30% | 1024.1 hPa | 0 mm | - | - | - |
| 1787897323 | 26.11° C | 32% | 1024.3 hPa | 0 mm | - | - | - |
| 1787897017 | 25.56° C | 34% | 1024.2 hPa | 0 mm | - | - | - |
| 1787896716 | 25° C | 36% | 1024.5 hPa | 0 mm | - | - | - |
| 1787896413 | 25.56° C | 37% | 1024.2 hPa | 0 mm | - | - | - |
| 1787896108 | 25.56° C | 37% | 1024.3 hPa | 0 mm | - | - | - |
| 1787895805 | 25.56° C | 36% | 1024.2 hPa | 0 mm | - | - | - |
| 1787895498 | 25.56° C | 36% | 1024 hPa | 0 mm | - | - | - |
| 1787895194 | 25.56° C | 37% | 1024 hPa | 0 mm | - | - | - |
| 1787894889 | 25.56° C | 34% | 1024 hPa | 0 mm | - | - | - |
| 1787894584 | 26.11° C | 34% | 1024.1 hPa | 0 mm | - | - | - |
| 1787894283 | 26.11° C | 34% | 1023.9 hPa | 0 mm | - | - | - |
| 1787893980 | 26.11° C | 33% | 1024.1 hPa | 0 mm | - | - | - |
| 1787893676 | 26.11° C | 33% | 1023.9 hPa | 0 mm | - | - | - |
| 1787893371 | 26.67° C | 33% | 1024.1 hPa | 0 mm | - | - | - |
| 1787893067 | 26.67° C | 33% | 1023.6 hPa | 0 mm | - | - | - |
| 1787892764 | 26.67° C | 32% | 1023.6 hPa | 0 mm | - | - | - |
| 1787892454 | 27.22° C | 32% | 1024 hPa | 0 mm | - | - | - |
| 1787892150 | 27.78° C | 31% | 1023.6 hPa | 0 mm | - | - | - |
| 1787891850 | 27.78° C | 30% | 1023.8 hPa | 0 mm | - | - | - |
| 1787891546 | 27.78° C | 30% | 1024 hPa | 0 mm | - | - | - |
| 1787891245 | 27.22° C | 31% | 1023.8 hPa | 0 mm | - | - | - |
| 1787890944 | 27.78° C | 33% | 1023.8 hPa | 0 mm | - | - | - |
| 1787890639 | 27.78° C | 30% | 1023.6 hPa | 0 mm | - | - | - |
| 1787890334 | 27.78° C | 30% | 1023.5 hPa | 0 mm | - | - | - |
* Rain latest hour (hover to see other rain measurements)
** Current wind speed in m/s (hover to see current wind gust speed)